Time,TemperatureF,DewpointF,PressureIn,WindDirection,WindDirectionDegrees,WindSpeedMPH,WindSpeedGustMPH,Humidity,HourlyPrecipIn,Conditions,Clouds,dailyrainin,SoftwareType,DateUTC
2013-08-04 00:02:00,49.0,42.0,30.71,North,0,0.0,2.0,76,0.00,,,0.27,,2013-08-04 07:02:00,
2013-08-04 04:32:00,49.0,40.0,30.68,SSE,150,5.0,10.0,72,0.00,,,0.27,,2013-08-04 11:32:00,
2013-08-04 04:42:00,49.0,41.0,30.68,SE,143,5.0,10.0,73,0.00,,,0.27,,2013-08-04 11:42:00,
2013-08-04 04:52:00,49.0,41.0,30.70,SSE,151,5.0,9.0,73,0.00,,,0.27,,2013-08-04 11:52:00,
2013-08-04 05:01:00,49.0,41.0,30.70,SSE,151,5.0,9.0,74,0.00,,,0.27,,2013-08-04 12:01:00,
2013-08-04 05:11:00,49.0,41.0,30.70,SE,145,5.0,8.0,75,0.00,,,0.27,,2013-08-04 12:11:00,
2013-08-04 05:21:00,49.0,42.0,30.71,SE,131,4.0,8.0,76,0.00,,,0.27,,2013-08-04 12:21:00,
2013-08-04 05:32:00,49.0,42.0,30.71,SSE,154,6.0,9.0,76,0.00,,,0.27,,2013-08-04 12:32:00,
2013-08-04 05:43:00,49.0,41.0,30.71,SSE,149,5.0,9.0,75,0.00,,,0.27,,2013-08-04 12:43:00,
2013-08-04 05:52:00,49.0,42.0,30.71,SE,142,5.0,8.0,76,0.00,,,0.27,,2013-08-04 12:52:00,
2013-08-04 06:52:00,48.0,40.0,30.72,SE,142,5.0,8.0,74,0.00,,,0.27,,2013-08-04 13:52:00,
2013-08-04 07:32:00,49.0,41.0,30.72,SSE,155,4.0,10.0,75,0.00,,,0.27,,2013-08-04 14:32:00,
2013-08-04 07:53:00,49.0,41.0,30.73,SSE,163,5.0,9.0,73,0.00,,,0.27,,2013-08-04 14:53:00,
2013-08-04 08:01:00,50.0,41.0,30.73,South,175,4.0,8.0,72,0.00,,,0.27,,2013-08-04 15:01:00,
2013-08-04 08:32:00,50.0,41.0,30.73,South,191,4.0,9.0,71,0.00,,,0.27,,2013-08-04 15:32:00,
2013-08-04 08:42:00,50.0,41.0,30.73,South,171,3.0,10.0,70,0.00,,,0.27,,2013-08-04 15:42:00,
2013-08-04 08:53:00,50.0,40.0,30.73,SSE,167,4.0,8.0,68,0.00,,,0.27,,2013-08-04 15:53:00,
2013-08-04 09:11:00,51.0,40.0,30.74,South,174,5.0,9.0,67,0.00,,,0.27,,2013-08-04 16:11:00,
2013-08-04 09:42:00,52.0,44.0,30.74,South,173,4.0,10.0,73,0.00,,,0.27,,2013-08-04 16:42:00,
2013-08-04 09:52:00,52.0,44.0,30.74,South,180,5.0,9.0,74,0.00,,,0.27,,2013-08-04 16:52:00,
2013-08-04 10:01:00,52.0,45.0,30.74,South,191,4.0,10.0,78,0.00,,,0.27,,2013-08-04 17:01:00,
2013-08-04 10:32:00,52.0,45.0,30.74,South,189,4.0,9.0,76,0.00,,,0.27,,2013-08-04 17:32:00,
2013-08-04 10:43:00,52.0,44.0,30.74,SSW,202,4.0,9.0,75,0.00,,,0.27,,2013-08-04 17:43:00,
2013-08-04 10:53:00,53.0,44.0,30.76,SW,216,4.0,9.0,71,0.00,,,0.27,,2013-08-04 17:53:00,
2013-08-04 11:01:00,52.0,44.0,30.76,SW,234,4.0,10.0,73,0.00,,,0.27,,2013-08-04 18:01:00,
2013-08-04 11:33:00,51.0,45.0,30.75,SSW,204,2.0,10.0,80,0.00,,,0.27,,2013-08-04 18:33:00,
2013-08-04 11:43:00,51.0,45.0,30.75,SSW,206,2.0,7.0,81,0.00,,,0.27,,2013-08-04 18:43:00,
2013-08-04 11:52:00,52.0,45.0,30.74,South,184,5.0,11.0,77,0.00,,,0.27,,2013-08-04 18:52:00,
2013-08-04 12:01:00,51.0,45.0,30.74,South,170,4.0,11.0,79,0.00,,,0.27,,2013-08-04 19:01:00,
2013-08-04 12:11:00,51.0,45.0,30.74,South,186,4.0,11.0,80,0.00,,,0.27,,2013-08-04 19:11:00,
2013-08-04 12:32:00,52.0,46.0,30.74,South,182,5.0,10.0,80,0.00,,,0.27,,2013-08-04 19:32:00,
2013-08-04 12:43:00,53.0,44.0,30.73,SW,214,5.0,13.0,71,0.00,,,0.27,,2013-08-04 19:43:00,
2013-08-04 12:52:00,53.0,45.0,30.73,SSW,205,2.0,9.0,73,0.00,,,0.27,,2013-08-04 19:52:00,
2013-08-04 13:02:00,53.0,44.0,30.73,SSW,196,6.0,16.0,72,0.00,,,0.27,,2013-08-04 20:02:00,
2013-08-04 13:11:00,52.0,42.0,30.73,South,187,6.0,11.0,68,0.00,,,0.27,,2013-08-04 20:11:00,
2013-08-04 13:21:00,51.0,42.0,30.73,South,191,5.0,10.0,70,0.00,,,0.27,,2013-08-04 20:21:00,
2013-08-04 13:42:00,51.0,45.0,30.73,South,185,3.0,8.0,81,0.01,,,0.28,,2013-08-04 20:42:00,
2013-08-04 13:53:00,51.0,44.0,30.73,South,176,3.0,7.0,77,0.01,,,0.28,,2013-08-04 20:53:00,
2013-08-04 14:01:00,51.0,44.0,30.73,SSW,202,3.0,7.0,77,0.01,,,0.28,,2013-08-04 21:01:00,
2013-08-04 14:11:00,50.0,44.0,30.73,West,274,7.0,12.0,80,0.02,,,0.29,,2013-08-04 21:11:00,
2013-08-04 14:32:00,50.0,43.0,30.71,South,184,7.0,13.0,78,0.02,,,0.29,,2013-08-04 21:32:00,
2013-08-04 14:43:00,50.0,44.0,30.71,SW,228,5.0,13.0,79,0.02,,,0.30,,2013-08-04 21:43:00,
2013-08-04 14:52:00,50.0,44.0,30.71,SSW,199,5.0,11.0,79,0.02,,,0.30,,2013-08-04 21:52:00,
2013-08-04 15:01:00,50.0,43.0,30.71,South,185,8.0,14.0,78,0.02,,,0.30,,2013-08-04 22:01:00,
2013-08-04 15:11:00,50.0,44.0,30.71,SSW,192,7.0,18.0,79,0.02,,,0.30,,2013-08-04 22:11:00,
2013-08-04 15:53:00,47.0,44.0,30.70,SSW,198,6.0,15.0,89,0.03,,,0.33,,2013-08-04 22:53:00,
2013-08-04 16:01:00,49.0,45.0,30.70,West,267,5.0,11.0,86,0.03,,,0.33,,2013-08-04 23:01:00,
2013-08-04 16:11:00,50.0,46.0,30.69,West,279,3.0,11.0,85,0.01,,,0.33,,2013-08-04 23:11:00,
2013-08-04 16:22:00,51.0,46.0,30.70,SW,214,3.0,10.0,83,0.01,,,0.33,,2013-08-04 23:22:00,
2013-08-04 16:32:00,51.0,46.0,30.70,WSW,243,4.0,10.0,84,0.01,,,0.33,,2013-08-04 23:32:00,
2013-08-04 16:43:00,52.0,46.0,30.70,SSW,206,6.0,10.0,81,0.01,,,0.33,,2013-08-04 23:43:00,
2013-08-04 16:53:00,52.0,45.0,30.70,SW,225,7.0,13.0,78,0.00,,,0.33,,2013-08-04 23:53:00,
2013-08-04 17:01:00,52.0,46.0,30.70,SSW,204,5.0,10.0,79,0.00,,,0.26,,2013-08-05 00:01:00,
2013-08-04 17:11:00,53.0,45.0,30.70,SSW,199,5.0,13.0,74,0.00,,,0.17,,2013-08-05 00:11:00,
2013-08-04 17:21:00,53.0,44.0,30.70,WSW,240,5.0,14.0,72,0.00,,,0.13,,2013-08-05 00:21:00,
2013-08-04 17:32:00,53.0,45.0,30.69,SSW,211,6.0,13.0,74,0.00,,,0.08,,2013-08-05 00:32:00,
2013-08-04 17:42:00,53.0,46.0,30.69,SSW,203,5.0,13.0,78,0.00,,,0.07,,2013-08-05 00:42:00,
2013-08-04 17:52:00,52.0,45.0,30.69,SSW,197,7.0,14.0,76,0.00,,,0.06,,2013-08-05 00:52:00,
2013-08-04 18:01:00,50.0,44.0,30.69,SW,219,6.0,13.0,79,0.00,,,0.06,,2013-08-05 01:01:00,
2013-08-04 18:11:00,50.0,44.0,30.69,SW,217,4.0,11.0,80,0.00,,,0.06,,2013-08-05 01:11:00,
2013-08-04 18:22:00,50.0,44.0,30.69,SW,217,4.0,9.0,81,0.00,,,0.06,,2013-08-05 01:22:00,
2013-08-04 18:33:00,49.0,43.0,30.70,SSW,198,4.0,8.0,80,0.00,,,0.06,,2013-08-05 01:33:00,
2013-08-04 18:42:00,49.0,42.0,30.68,SSW,212,4.0,10.0,77,0.00,,,0.06,,2013-08-05 01:42:00,
2013-08-04 18:52:00,49.0,42.0,30.68,SSW,202,3.0,8.0,77,0.00,,,0.06,,2013-08-05 01:52:00,
2013-08-04 19:01:00,49.0,42.0,30.68,SSW,196,3.0,9.0,77,0.00,,,0.06,,2013-08-05 02:01:00,
2013-08-04 19:11:00,49.0,42.0,30.68,SSW,202,3.0,9.0,76,0.00,,,0.06,,2013-08-05 02:11:00,
2013-08-04 19:33:00,51.0,41.0,30.69,WSW,256,3.0,7.0,68,0.00,,,0.06,,2013-08-05 02:33:00,
2013-08-04 19:42:00,50.0,41.0,30.69,West,263,4.0,7.0,71,0.00,,,0.06,,2013-08-05 02:42:00,
2013-08-04 19:53:00,50.0,41.0,30.69,WSW,249,2.0,6.0,71,0.00,,,0.06,,2013-08-05 02:53:00,
2013-08-04 20:02:00,50.0,40.0,30.70,SW,228,3.0,8.0,68,0.00,,,0.06,,2013-08-05 03:02:00,
2013-08-04 20:11:00,50.0,40.0,30.70,SW,227,5.0,9.0,69,0.00,,,0.06,,2013-08-05 03:11:00,
2013-08-04 20:42:00,50.0,41.0,30.70,WSW,244,4.0,7.0,71,0.00,,,0.06,,2013-08-05 03:42:00,
2013-08-04 21:01:00,50.0,41.0,30.71,SW,233,2.0,6.0,71,0.00,,,0.06,,2013-08-05 04:01:00,
2013-08-04 21:11:00,50.0,40.0,30.71,SW,231,2.0,6.0,69,0.00,,,0.06,,2013-08-05 04:11:00,
2013-08-04 21:32:00,49.0,39.0,30.72,SW,224,3.0,6.0,69,0.00,,,0.06,,2013-08-05 04:32:00,
2013-08-04 21:43:00,49.0,39.0,30.73,SSW,209,3.0,6.0,68,0.00,,,0.06,,2013-08-05 04:43:00,
2013-08-04 21:52:00,49.0,39.0,30.73,SW,218,2.0,6.0,69,0.00,,,0.06,,2013-08-05 04:52:00,
2013-08-04 22:01:00,49.0,39.0,30.71,SW,229,1.0,4.0,68,0.00,,,0.06,,2013-08-05 05:01:00,
2013-08-04 22:11:00,49.0,39.0,30.71,SSW,200,3.0,5.0,68,0.00,,,0.06,,2013-08-05 05:11:00,
2013-08-04 22:32:00,49.0,39.0,30.71,South,189,2.0,5.0,68,0.00,,,0.06,,2013-08-05 05:32:00,
2013-08-04 22:42:00,49.0,39.0,30.71,North,0,0.0,3.0,68,0.00,,,0.06,,2013-08-05 05:42:00,
2013-08-04 22:52:00,49.0,39.0,30.72,SSW,210,2.0,6.0,69,0.00,,,0.06,,2013-08-05 05:52:00,
2013-08-04 23:01:00,49.0,39.0,30.71,SSW,207,3.0,5.0,69,0.00,,,0.06,,2013-08-05 06:01:00,
2013-08-04 23:11:00,49.0,39.0,30.72,SSW,207,2.0,4.0,68,0.00,,,0.06,,2013-08-05 06:11:00,
2013-08-04 23:21:00,49.0,38.0,30.71,SW,229,1.0,4.0,65,0.00,,,0.06,,2013-08-05 06:21:00,
2013-08-04 23:32:00,49.0,38.0,30.71,SW,224,2.0,3.0,65,0.00,,,0.06,,2013-08-05 06:32:00,
2013-08-04 23:52:00,49.0,39.0,30.71,SW,224,1.0,3.0,67,0.00,,,0.06,,2013-08-05 06:52:00,